Sparta, WI

2:21 PM CDT on May 22, 2018 (GMT -0500)
Sparta-Fort McCoy

Weather History for KCMY - January, 2014

Change the Weather History Date:

Wednesday, January 29, 2014

  Actual Average Record
Temperature  
Mean Temperature 4 °F -  
Max Temperature 29 °F 24 °F 46 °F (2013)
Min Temperature -21 °F 4 °F -33 °F (1965)
Degree Days  
Heating Degree Days 62    
Moisture  
Dew Point -6 °F    
Average Humidity 57    
Maximum Humidity 81    
Minimum Humidity 33    
Precipitation  
Precipitation 0.00 in - - ()
Sea Level Pressure  
Sea Level Pressure 29.95 in    
Wind  
Wind Speed 4 mph (SW)    
Max Wind Speed 15 mph    
Max Gust Speed 25 mph    
Visibility 10 miles    
Events      
Averages and records for this station are not official NWS values.
T = Trace of Precipitation, MM = Missing Value Source: NWS Daily Summary

Daily Weather History Graph

Daily Weather History Graph

Search for Another Location

Airport or City:

Astronomy

Jan. 29, 2014 Rise Set
Actual Time 7:23 AM CST 5:09 PM CST
Civil Twilight 6:52 AM CST 5:40 PM CST
Nautical Twilight 6:17 AM CST 6:15 PM CST
Astronomical Twilight 5:43 AM CST 6:48 PM CST
Moon 6:00 AM CST (1/29) 4:09 PM CST (1/29)
Length of Visible Light 10h 47m
Length of Day
9h 45m
Waning Crescent, 2% of the Moon is Illuminated
Jan 29
Waning Crescent
Jan 30
New
Feb 6
First Quarter
Feb 14
Full
Feb 22
Last Quarter

Hourly Weather History & Observations

Time (CST) Temp. Windchill Dew Point Humidity Pressure Visibility Wind Dir Wind Speed Gust Speed Precip Events Conditions
12:15 AM -5.3 °F -13.8 °F -11.4 °F 75% 30.12 in 10.0 mi SW 3.5 mph - N/A   Clear
12:35 AM -5.4 °F -14.1 °F -11.6 °F 75% 30.11 in 10.0 mi WSW 3.5 mph - N/A   Clear
12:55 AM -6.9 °F - -13.0 °F 75% 30.11 in 10.0 mi Calm Calm - N/A   Clear
1:15 AM -7.8 °F - -13.0 °F 78% 30.11 in 10.0 mi Calm Calm - N/A   Clear
1:35 AM -5.8 °F -14.5 °F -11.7 °F 75% 30.11 in 10.0 mi WSW 3.5 mph - N/A   Clear
1:55 AM -5.1 °F -13.6 °F -11.7 °F 73% 30.10 in 10.0 mi WSW 3.5 mph - N/A   Clear
2:15 AM -5.3 °F -16.0 °F -12.1 °F 72% 30.10 in 10.0 mi WSW 4.6 mph - N/A   Clear
2:35 AM -7.2 °F -16.1 °F -13.5 °F 74% 30.10 in 10.0 mi WSW 3.5 mph - N/A   Clear
2:55 AM -11.4 °F -20.8 °F -16.2 °F 79% 30.10 in 10.0 mi West 3.5 mph - N/A   Clear
3:15 AM -11.4 °F -23.2 °F -15.7 °F 81% 30.09 in 10.0 mi WSW 4.6 mph - N/A   Clear
3:35 AM -6.7 °F -17.7 °F -12.6 °F 75% 30.08 in 10.0 mi WSW 4.6 mph - N/A   Clear
3:55 AM -6.5 °F - -12.8 °F 74% 30.08 in 10.0 mi Calm Calm - N/A   Clear
4:15 AM -8.1 °F -17.1 °F -13.2 °F 79% 30.08 in 10.0 mi WSW 3.5 mph - N/A   Clear
4:35 AM -8.1 °F - -13.4 °F 78% 30.07 in 10.0 mi Calm Calm - N/A   Clear
4:55 AM -7.6 °F -16.5 °F -13.0 °F 77% 30.07 in 10.0 mi WSW 3.5 mph - N/A   Clear
5:15 AM -16.6 °F - -23.6 °F 70% 30.07 in 10.0 mi Calm Calm - N/A   Clear
5:35 AM -19.3 °F - -25.4 °F 73% 30.07 in 10.0 mi Calm Calm - N/A   Clear
5:55 AM -20.6 °F - -27.4 °F 71% 30.07 in 10.0 mi Calm Calm - N/A   Clear
6:15 AM -20.6 °F - -27.0 °F 72% 30.07 in 10.0 mi Calm Calm - N/A   Clear
6:35 AM -20.6 °F - -27.0 °F 72% 30.07 in 10.0 mi Calm Calm - N/A   Clear
6:55 AM -20.4 °F - -26.3 °F 74% 30.07 in 10.0 mi Calm Calm - N/A   Clear
7:15 AM -21.5 °F - -28.1 °F 71% 30.07 in 10.0 mi Calm Calm - N/A   Clear
7:35 AM -21.3 °F - -27.8 °F 72% 30.06 in 10.0 mi Calm Calm - N/A   Clear
7:55 AM -21.3 °F - -28.3 °F 70% 30.06 in 10.0 mi Calm Calm - N/A   Clear
8:15 AM -18.2 °F - -25.6 °F 69% 30.07 in 10.0 mi Calm Calm - N/A   Clear
8:35 AM -16.2 °F - -23.8 °F 69% 30.06 in 10.0 mi Calm Calm - N/A   Clear
8:55 AM -13.5 °F - -20.9 °F 70% 30.06 in 10.0 mi Calm Calm - N/A   Clear
9:15 AM -6.3 °F - -14.6 °F 67% 30.05 in 10.0 mi Calm Calm - N/A   Clear
9:35 AM -0.9 °F - -9.6 °F 67% 30.05 in 10.0 mi Calm Calm - N/A   Clear
9:55 AM 3.4 °F - -8.3 °F 58% 30.05 in 10.0 mi Calm Calm - N/A   Clear
10:15 AM 7.3 °F -1.3 °F -6.7 °F 53% 30.04 in 10.0 mi WSW 4.6 mph - N/A   Clear
10:35 AM 9.5 °F 1.2 °F -6.2 °F 49% 30.04 in 10.0 mi West 4.6 mph - N/A   Clear
10:55 AM 11.5 °F 2.1 °F -5.4 °F 47% 30.03 in 10.0 mi SW 5.8 mph - N/A   Clear
11:15 AM 13.1 °F 4.0 °F -5.3 °F 44% 30.04 in 10.0 mi West 5.8 mph - N/A   Clear
11:35 AM 14.0 °F 6.5 °F -4.5 °F 44% 30.03 in 10.0 mi West 4.6 mph - N/A   Clear
11:55 AM 14.9 °F 7.5 °F -3.5 °F 44% 30.02 in 10.0 mi SSW 4.6 mph - N/A   Clear
12:15 PM 16.7 °F 9.6 °F -3.5 °F 41% 30.02 in 10.0 mi SW 4.6 mph - N/A   Clear
12:35 PM 18.3 °F 8.2 °F -2.7 °F 40% 30.00 in 10.0 mi SW 8.1 mph - N/A   Clear
12:55 PM 19.4 °F 10.4 °F -2.0 °F 39% 29.98 in 10.0 mi SW 6.9 mph - N/A   Clear
1:15 PM 21.2 °F 10.9 °F -1.5 °F 37% 29.97 in 10.0 mi SSW 9.2 mph - N/A   Clear
1:35 PM 22.1 °F 11.3 °F -1.3 °F 36% 29.96 in 10.0 mi SW 10.4 mph 17.3 mph N/A   Clear
1:55 PM 23.0 °F 15.8 °F -0.8 °F 36% 29.94 in 10.0 mi SSW 5.8 mph - N/A   Clear
2:15 PM 23.0 °F 11.7 °F -1.1 °F 35% 29.92 in 10.0 mi SSW 11.5 mph - N/A   Clear
2:35 PM 23.9 °F 12.9 °F -1.8 °F 33% 29.91 in 10.0 mi SSW 11.5 mph - N/A   Clear
2:55 PM 21.7 °F 10.2 °F 0.3 °F 39% 29.91 in 10.0 mi South 11.5 mph 20.7 mph N/A   Clear
3:15 PM 21.2 °F 8.9 °F 0.5 °F 41% 29.89 in 10.0 mi South 12.7 mph 17.3 mph N/A   Clear
3:35 PM 21.2 °F 8.9 °F 0.7 °F 41% 29.88 in 10.0 mi South 12.7 mph 17.3 mph N/A   Clear
3:55 PM 21.6 °F 10.6 °F 1.0 °F 41% 29.87 in 10.0 mi South 10.4 mph 17.3 mph N/A   Clear
4:15 PM 22.3 °F 13.0 °F 0.5 °F 39% 29.86 in 10.0 mi SSW 8.1 mph 16.1 mph N/A   Clear
4:35 PM 22.1 °F 14.7 °F 0.7 °F 39% 29.86 in 10.0 mi SSW 5.8 mph - N/A   Clear
4:55 PM 22.1 °F 12.0 °F 1.9 °F 42% 29.86 in 10.0 mi SSW 9.2 mph 16.1 mph N/A   Clear
5:15 PM 20.5 °F 11.7 °F 2.8 °F 47% 29.85 in 10.0 mi South 6.9 mph - N/A   Clear
5:35 PM 21.2 °F 10.9 °F 3.4 °F 46% 29.84 in 10.0 mi South 9.2 mph - N/A   Clear
5:55 PM 20.3 °F 9.0 °F 4.3 °F 50% 29.83 in 10.0 mi South 10.4 mph 16.1 mph N/A   Clear
6:15 PM 20.1 °F 8.8 °F 5.0 °F 52% 29.82 in 10.0 mi South 10.4 mph 18.4 mph N/A   Clear
6:35 PM 20.1 °F 10.3 °F 5.9 °F 54% 29.80 in 10.0 mi South 8.1 mph - N/A   Clear
6:55 PM 21.2 °F 9.5 °F 6.4 °F 53% 29.79 in 10.0 mi South 11.5 mph 20.7 mph N/A   Clear
7:15 PM 22.3 °F 11.5 °F 6.6 °F 51% 29.78 in 10.0 mi South 10.4 mph 17.3 mph N/A   Clear
7:35 PM 23.4 °F 14.3 °F 7.0 °F 50% 29.77 in 10.0 mi South 8.1 mph 17.3 mph N/A   Clear
7:55 PM 23.9 °F 13.5 °F 7.5 °F 50% 29.76 in 10.0 mi SSW 10.4 mph 18.4 mph N/A   Clear
8:15 PM 23.9 °F 16.8 °F 7.7 °F 50% 29.75 in 10.0 mi SSW 5.8 mph 17.3 mph N/A   Clear
8:35 PM 23.9 °F 15.0 °F 7.9 °F 51% 29.75 in 10.0 mi South 8.1 mph - N/A   Clear
8:55 PM 24.4 °F 14.9 °F 8.1 °F 50% 29.75 in 10.0 mi SSW 9.2 mph 16.1 mph N/A   Clear
9:15 PM 24.8 °F 19.1 °F 8.4 °F 50% 29.75 in 10.0 mi SSW 4.6 mph - N/A   Clear
9:35 PM 26.1 °F 14.0 °F 8.6 °F 48% 29.74 in 10.0 mi SSW 15.0 mph 25.3 mph N/A   Clear
9:55 PM 27.0 °F 16.1 °F 9.3 °F 48% 29.72 in 10.0 mi SSW 12.7 mph 21.9 mph N/A   Clear
10:15 PM 27.3 °F 17.1 °F 9.7 °F 48% 29.72 in 10.0 mi SSW 11.5 mph 18.4 mph N/A   Clear
10:35 PM 27.7 °F 19.6 °F 10.4 °F 48% 29.72 in 10.0 mi SSW 8.1 mph 19.6 mph N/A   Clear
10:55 PM 28.4 °F 18.5 °F 11.1 °F 48% 29.71 in 10.0 mi SSW 11.5 mph 20.7 mph N/A   Clear
11:15 PM 28.8 °F 17.9 °F 11.3 °F 48% 29.70 in 10.0 mi SSW 13.8 mph 24.2 mph N/A   Clear
11:35 PM 28.9 °F 20.4 °F 11.3 °F 48% 29.70 in 10.0 mi SSW 9.2 mph 21.9 mph N/A   Clear
11:55 PM 29.1 °F 18.9 °F 11.7 °F 48% 29.69 in 10.0 mi SSW 12.7 mph 23.0 mph N/A   Clear